Content
SEND FEEDBACK

Daily
Averages
Monthly
Summary
Mexico

PLAYA DEL CARMEN, QUINTANA ROO


Home > North America > Mexico > Quintana Roo
Elevation: 30 feet     Latitude: 20 38N     Longitude: 087 04W

WEATHER
 
SELECT A DAY
Number of Records: 206,620;   Date Range: 2/21/06 - 12/27/14
 
SHARE

PRINT THIS DATA

[ ← Previous Day ]
WEATHER ALMANAC - OCTOBER 18, 2013
[ Next Day → ]
[ °C ]   °F
Weather ElementAverageHighLow
Temperature80 °F89.6 °F (12:55 pm)71.6 °F (1:35 am)
Dewpoint40.7 °F77 °F (9:35 pm) (7:00 pm)
Humidity56.8 %100 % (9:35 pm)33 % (5:35 pm)
Barometer29.97 in30.03 in (9:55 am)29.93 in (3:35 pm)
Wind Speed2.9 mph9.2 mph (11:15 am)
Weather ElementAverage
Visibility9.8 mi
Wind DirectionE (89.3 °)

Weather ElementTotal
Precipitation---
Cooling Degree Days15.6 (Base 65)
Growing Degree Days30.6 (Base 50)
Averaged from 71 records on October 18, 2013
WEATHER CONDITIONS BREAKOUT
WIND DIRECTION BREAKOUT
WEATHER BY HOUR - OCTOBER 18, 2013
[ °C ]   °F
Local TimeTemperatureDewpointHumidityBarometerVisibilityWind DirectionWind SpeedGust SpeedPrecipitationEventsConditions
12:35 AM75.2 °F68.0 °F78 %29.97 in10.0 miCalmClear
12:55 AM73.4 °F66.2 °F78 %29.96 in10.0 miCalmClear
1:15 AM73.4 °F68.0 °F83 %29.96 in10.0 miCalmClear
1:35 AM71.6 °F0.0 °F29.96 in10.0 miCalmClear
1:55 AM71.6 °F0.0 °F29.96 in10.0 miCalmClear
2:15 AM71.6 °F0.0 °F29.96 in10.0 miENE (70°)3.5 mphScattered Clouds
2:35 AM71.6 °F0.0 °F29.95 in10.0 miEast (90°)3.5 mphClear
2:55 AM71.6 °F0.0 °F29.95 in10.0 miEast (100°)3.5 mphClear
3:15 AM73.4 °F0.0 °F29.95 in10.0 miEast (100°)3.5 mphClear
3:35 AM73.4 °F0.0 °F29.95 in10.0 miESE (110°)3.5 mphClear
3:55 AM73.4 °F0.0 °F29.95 in10.0 miSE (130°)4.6 mphClear
4:15 AM73.4 °F0.0 °F29.95 in10.0 miSE (130°)4.6 mphClear
4:35 AM73.4 °F0.0 °F29.95 in10.0 miESE (120°)4.6 mphClear
4:55 AM73.4 °F0.0 °F29.95 in10.0 miSE (130°)3.5 mphClear
5:15 AM73.4 °F0.0 °F29.96 in10.0 miCalmClear
5:35 AM71.6 °F0.0 °F29.96 in10.0 miESE (120°)3.5 mphClear
5:55 AM71.6 °F0.0 °F29.96 in10.0 miESE (120°)3.5 mphClear
6:15 AM71.6 °F0.0 °F29.97 in10.0 miCalmClear
6:35 AM71.6 °F0.0 °F29.97 in10.0 miCalmScattered Clouds
6:55 AM71.6 °F0.0 °F29.98 in10.0 miCalmScattered Clouds
7:15 AM71.6 °F0.0 °F29.98 in10.0 miCalmClear
7:35 AM71.6 °F0.0 °F29.99 in5.0 miCalmHaze
7:55 AM71.6 °F0.0 °F29.99 in7.0 miCalmClear
8:15 AM73.4 °F0.0 °F30.00 in7.0 miCalmScattered Clouds
8:35 AM75.2 °F0.0 °F30.01 in10.0 miESE (120°)3.5 mphScattered Clouds
8:55 AM77.0 °F0.0 °F30.02 in10.0 miESE (120°)3.5 mphScattered Clouds
9:15 AM77.0 °F0.0 °F30.02 in10.0 miSE (130°)3.5 mphClear
9:35 AM78.8 °F71.6 °F78 %30.02 in10.0 miSE (140°)3.5 mphScattered Clouds
9:55 AM80.6 °F71.6 °F74 %30.03 in10.0 miSE (130°)5.8 mphMostly Cloudy
10:15 AM82.4 °F69.8 °F66 %30.03 in10.0 miSE (130°)4.6 mphScattered Clouds
10:35 AM82.4 °F68.0 °F62 %30.03 in10.0 miSSE (160°)6.9 mphClear
10:55 AM84.2 °F68.0 °F58 %30.03 in10.0 miSSE (150°)6.9 mphClear
11:15 AM84.2 °F66.2 °F55 %30.02 in10.0 miESE (120°)9.2 mphClear
11:35 AM86.0 °F66.2 °F51 %30.02 in10.0 miSSE (150°)8.1 mphClear
11:55 AM86.0 °F64.4 °F48 %30.02 in10.0 miSE (130°)9.2 mphClear
12:15 PM87.8 °F64.4 °F46 %30.01 in10.0 miSSE (160°)3.5 mphClear
12:35 PM87.8 °F62.6 °F43 %30.00 in10.0 miESE (110°)4.6 mphClear
12:55 PM89.6 °F64.4 °F43 %29.99 in10.0 miSE (140°)6.9 mphClear
1:15 PM89.6 °F62.6 °F40 %29.98 in10.0 miESE (110°)4.6 mphScattered Clouds
1:35 PM87.8 °F60.8 °F40 %29.97 in10.0 miSSE (150°)4.6 mphScattered Clouds
1:55 PM89.6 °F59.0 °F36 %29.96 in10.0 miSSE (150°)6.9 mphClear
2:15 PM89.6 °F60.8 °F38 %29.95 in10.0 miSSE (150°)6.9 mphClear
2:35 PM89.6 °F59.0 °F36 %29.94 in10.0 miSSE (160°)4.6 mphScattered Clouds
2:55 PM87.8 °F60.8 °F40 %29.94 in10.0 miEast (80°)3.5 mphScattered Clouds
3:15 PM89.6 °F60.8 °F38 %29.94 in10.0 miESE (110°)4.6 mphMostly Cloudy
3:35 PM89.6 °F59.0 °F36 %29.93 in10.0 miESE (120°)3.5 mphScattered Clouds
3:55 PM89.6 °F60.8 °F38 %29.93 in10.0 miEast (100°)3.5 mphClear
4:15 PM89.6 °F59.0 °F36 %29.93 in10.0 miEast (90°)4.6 mphClear
4:35 PM87.8 °F60.8 °F40 %29.93 in10.0 miCalmClear
4:55 PM87.8 °F60.8 °F40 %29.93 in10.0 miESE (110°)3.5 mphScattered Clouds
5:15 PM87.8 °F59.0 °F38 %29.93 in10.0 miSSE (150°)4.6 mphMostly Cloudy
5:35 PM89.6 °F57.2 °F33 %29.93 in10.0 miCalmScattered Clouds
5:55 PM89.6 °F57.2 °F33 %29.93 in10.0 miCalmScattered Clouds
6:15 PM87.8 °F62.6 °F43 %29.93 in10.0 miSE (140°)3.5 mphMostly Cloudy
6:35 PM87.8 °F62.6 °F43 %29.94 in10.0 miCalmOvercast
6:55 PM84.2 °F64.4 °F51 %29.94 in10.0 miCalmOvercast
7:15 PM82.4 °F68.0 °F62 %29.95 in10.0 miWest (260°)5.8 mphScattered Clouds
7:35 PM82.4 °F68.0 °F62 %29.96 in10.0 miWest (260°)4.6 mphMostly Cloudy
7:55 PM82.4 °F68.0 °F62 %29.96 in10.0 miWNW (300°)4.6 mphScattered Clouds
8:15 PM82.4 °F69.8 °F66 %29.97 in10.0 miNNW (330°)3.5 mphScattered Clouds
8:35 PM80.6 °F71.6 °F74 %29.97 in10.0 miNW (310°)3.5 mphClear
8:55 PM80.6 °F71.6 °F74 %29.97 in10.0 miCalmScattered Clouds
9:15 PM80.6 °F69.8 °F70 %29.98 in10.0 miCalmClear
9:35 PM77.0 °F77.0 °F100 %29.98 in10.0 miCalmClear
9:55 PM77.0 °F71.6 °F83 %29.99 in10.0 miNE (50°)3.5 mphClear
10:15 PM77.0 °F75.2 °F94 %29.99 in10.0 miCalmClear
10:35 PM77.0 °F75.2 °F94 %29.99 in10.0 miCalmClear
10:55 PM77.0 °F75.2 °F94 %29.99 in10.0 miCalmClear
11:15 PM77.0 °F0.0 °F29.99 in10.0 miCalmClear
11:35 PM75.2 °F0.0 °F29.99 in10.0 miEast (100°)3.5 mphClear
11:55 PM77.0 °F0.0 °F29.99 in10.0 miCalmClear
Hourly data recorded from KPCM, located miles away from Playa del Carmen, Quintana Roo







STORIES FROM OUR PARTNERS